Regional Weather Roundup
Issued by NWS

Home | Current Version | Previous Version | Graphics & Text | Print | Product List | Glossary On
Versions: 1 2 3 4 5 6 7 8 9 10 11 12 13 14 15 16 17 18 19 20 21 22 23 24 25 26 27 28 29 30 31 32 33 34 35 36 37 38 39 40 41 42 43 44 45 46 47 48 49 50
000
ASUS43 KFSD 151810
RWRSD

WEATHER ROUNDUP FOR SOUTH DAKOTA
NATIONAL WEATHER SERVICE SIOUX FALLS SD
100 PM CDT MON SEP 15 2014

NOTE: "FAIR" INDICATES FEW OR NO CLOUDS BELOW 12,000 FEET WITH NO
SIGNIFICANT WEATHER AND/OR OBSTRUCTIONS TO VISIBILITY.


SDZ001>005-009-010-012>017-151900-
NORTHWEST AND NORTH CENTRAL SOUTH DAKOTA

CITY           SKY/WX    TMP DP  RH WIND       PRES   REMARKS
BUFFALO          N/A     61  38  42 S9G20     30.17F
FAITH            N/A     59  38  45 S9        30.26F
MOBRIDGE       SUNNY     62  37  39 S8        30.26S
$$

SDZ012>016-024>037-041>051-057-063-072>074-151900-
SOUTHWEST AND SOUTH CENTRAL SOUTH DAKOTA

CITY           SKY/WX    TMP DP  RH WIND       PRES   REMARKS
RAPID CTY ARPT SUNNY     59  42  53 SE13      30.27F
PIERRE         SUNNY     60  35  39 CALM      30.29F
CUSTER         SUNNY     59  39  47 VRB7      30.29F
ELLSWORTH AFB  SUNNY     60  43  52 S12       30.26F
PHILIP         SUNNY     61  37  41 VRB6      30.28F
PINE RIDGE     SUNNY     60  41  49 SE8       30.29F
WINNER         FAIR      61  34  36 N10       30.31F
$$

SDZ004>011-016>023-039-040-151900-
NORTHEAST SOUTH DAKOTA

CITY           SKY/WX    TMP DP  RH WIND       PRES   REMARKS
ABERDEEN       SUNNY     59  34  39 NE8       30.28F
WATERTOWN      SUNNY     58  37  45 NW12G17   30.27S
SISSETON         N/A     62  30  29 N12G20    30.26S
$$

SDZ017-020-022-023-036>040-048>070-151900-
SOUTHEAST SOUTH DAKOTA

CITY           SKY/WX    TMP DP  RH WIND       PRES   REMARKS
SIOUX FALLS    PTSUNNY   56  42  59 N9        30.26F
HURON          SUNNY     60  35  39 N10       30.28S
CHAMBERLAIN    SUNNY     59  35  39 NW5       30.30F
MITCHELL       SUNNY     61  37  41 N8        30.29F
YANKTON        PTSUNNY   59  41  51 N13G18    30.28S
$$

ABBREVIATIONS USED IN REMARKS
   TC - TEMPERATURE IN CELSIUS
  WCI - WIND CHILL INDEX
   HX - HEAT INDEX
  VSB - VISIBILITY




USA.gov is the U.S. government's official web portal to all federal, state and local government web resources and services.